GW4987 Weather Reports


time (UTC)temp
C
wind
direction
speed
KPH
gust
KPH
rain 1hr
cm
rain 24hr
cm
rain mn
cm
humidity
%
barometer
mb
20260504050556 15 208 6.4 8.0 0.00 0.00 0.00 35 1016.3
20260504045555 15 192 9.7 17.7 0.00 0.00 0.00 35 1016.2
20260504045055 15 199 6.4 11.3 0.00 0.00 0.00 36 1016.0
20260504044556 15 189 3.2 19.3 0.00 0.00 0.00 36 1015.9
20260504044012 15 152 8.0 17.7 0.00 0.00 0.00 36 1016.1
20260504043555 15 162 11.3 17.7 0.00 0.00 0.00 36 1016.1
20260504043056 15 322 6.4 32.2 0.00 0.00 0.00 35 1016.0
20260504041013 16 194 12.9 20.9 0.00 0.00 0.00 36 1015.9
20260504040555 16 200 11.3 11.3 0.00 0.00 0.00 36 1015.9
20260504040055 16 196 11.3 14.5 0.00 0.00 0.00 35 1015.9
20260504035555 16 212 12.9 17.7 0.00 0.00 0.00 35 1015.9
20260504035055 16 203 12.9 14.5 0.00 0.00 0.00 35 1015.9
20260504031555 17 188 11.3 25.7 0.00 0.00 0.00 29 1015.4
20260504031055 17 187 8.0 24.1 0.00 0.00 0.00 29 1015.4
20260504030556 17 205 9.7 19.3 0.00 0.00 0.00 28 1015.2
20260504030012 17 182 12.9 32.2 0.00 0.00 0.00 28 1015.0
20260504025556 17 220 20.9 38.6 0.00 0.00 0.00 27 1015.2
20260504025056 17 215 24.1 35.4 0.00 0.00 0.00 27 1015.3
20260504024512 17 219 24.1 41.8 0.00 0.00 0.00 26 1015.1
20260504024012 17 211 32.2 32.2 0.00 0.00 0.00 26 1015.0
20260504023556 17 184 11.3 33.8 0.00 0.00 0.00 26 1015.2
20260504023012 17 184 11.3 32.2 0.00 0.00 0.00 25 1015.2
20260504022555 17 187 14.5 33.8 0.00 0.00 0.00 25 1015.0
20260504022056 18 241 12.9 37.0 0.00 0.00 0.00 24 1015.0
20260504020055 18 194 8.0 24.1 0.00 0.00 0.00 23 1014.6
20260504015555 18 207 25.7 27.4 0.00 0.00 0.00 23 1014.7
20260504015013 18 188 17.7 27.4 0.00 0.00 0.00 22 1014.7
20260504014555 19 168 19.3 22.5 0.00 0.00 0.00 23 1014.6
20260504014056 19 172 19.3 24.1 0.00 0.00 0.00 22 1014.5
20260504013555 20 213 11.3 24.1 0.00 0.00 0.00 22 1014.6
20260504013055 20 208 16.1 24.1 0.00 0.00 0.00 22 1014.7
20260504012555 20 218 24.1 25.7 0.00 0.00 0.00 23 1014.7
20260504012013 20 165 11.3 29.0 0.00 0.00 0.00 23 1014.7
20260504011555 20 181 27.4 35.4 0.00 0.00 0.00 22 1014.9
20260504011056 20 181 12.9 40.2 0.00 0.00 0.00 23 1014.6
20260504010512 20 196 24.1 27.4 0.00 0.00 0.00 22 1014.5
20260504010012 20 198 16.1 30.6 0.00 0.00 0.00 22 1014.7
20260504005556 20 150 12.9 25.7 0.00 0.00 0.00 22 1015.0
20260504005012 20 159 19.3 38.6 0.00 0.00 0.00 23 1015.0
20260504004555 20 209 19.3 41.8 0.00 0.00 0.00 22 1015.0
20260504004056 21 153 14.5 27.4 0.00 0.00 0.00 22 1014.9
20260504003556 21 168 16.1 27.4 0.00 0.00 0.00 21 1015.1
20260504003056 21 205 19.3 33.8 0.00 0.00 0.00 22 1015.2
20260504002556 21 204 29.0 30.6 0.00 0.00 0.00 22 1015.1
20260504002056 21 202 16.1 38.6 0.00 0.00 0.00 23 1015.0
20260504001513 21 146 12.9 35.4 0.00 0.00 0.00 23 1015.1
20260504001012 21 138 14.5 35.4 0.00 0.00 0.00 23 1015.0
20260504000555 21 137 27.4 49.9 0.00 0.00 0.00 22 1015.2
20260504000056 21 188 25.7 32.2 0.00 0.00 0.00 22 1015.1
20260503235555 21 257 19.3 30.6 0.00 0.00 0.00 22 1015.0
20260503235055 21 157 9.7 37.0 0.00 0.00 0.00 22 1015.2
20260503234556 21 181 8.0 30.6 0.00 0.00 0.00 21 1015.1
20260503234013 21 201 19.3 33.8 0.00 0.00 0.00 20 1015.3
20260503233555 21 177 17.7 43.5 0.00 0.00 0.00 21 1015.2
20260503233056 21 204 41.8 45.1 0.00 0.00 0.00 23 1015.1
20260503232513 21 225 19.3 38.6 0.00 0.00 0.00 23 1015.1
20260503232012 21 169 19.3 35.4 0.00 0.00 0.00 22 1015.3
20260503231555 21 228 24.1 48.3 0.00 0.00 0.00 22 1015.1
20260503231012 21 180 33.8 41.8 0.00 0.00 0.00 24 1015.3
20260503230555 22 146 20.9 25.7 0.00 0.00 0.00 22 1015.2
20260503230055 22 157 16.1 22.5 0.00 0.00 0.00 23 1015.1
20260503225555 22 207 19.3 32.2 0.00 0.00 0.00 25 1015.2
20260503225013 21 212 12.9 40.2 0.00 0.00 0.00 25 1015.4
20260503224555 22 172 14.5 33.8 0.00 0.00 0.00 25 1015.3
20260503224055 21 103 11.3 35.4 0.00 0.00 0.00 25 1015.4
20260503223555 21 154 12.9 29.0 0.00 0.00 0.00 25 1015.7
20260503223012 22 209 16.1 40.2 0.00 0.00 0.00 24 1015.6
20260503222555 21 177 11.3 38.6 0.00 0.00 0.00 25 1015.7
20260503222056 21 137 17.7 33.8 0.00 0.00 0.00 25 1015.4
20260503221555 22 140 19.3 25.7 0.00 0.00 0.00 25 1015.8
20260503221055 22 132 11.3 45.1 0.00 0.00 0.00 25 1015.9
20260503220556 22 183 19.3 33.8 0.00 0.00 0.00 25 1016.0
20260503214512 22 141 12.9 32.2 0.00 0.00 0.00 24 1016.1
20260503214012 22 153 24.1 33.8 0.00 0.00 0.00 26 1016.1
20260503213536 21 141 8.0 37.0 0.00 0.00 0.00 27 1016.2
20260503213055 21 143 17.7 35.4 0.00 0.00 0.00 27 1016.3
20260503212555 22 147 9.7 25.7 0.00 0.00 0.00 26 1016.2
20260503212056 22 141 3.2 20.9 0.00 0.00 0.00 26 1016.5
20260503211556 21 141 11.3 29.0 0.00 0.00 0.00 27 1016.5
20260503211014 21 189 19.3 48.3 0.00 0.00 0.00 27 1017.0
20260503210555 21 160 11.3 27.4 0.00 0.00 0.00 27 1016.8
20260503210055 22 146 16.1 37.0 0.00 0.00 0.00 27 1016.7
20260503205556 22 186 16.1 38.6 0.00 0.00 0.00 26 1016.7
20260503205013 21 152 20.9 32.2 0.00 0.00 0.00 26 1017.0
20260503204555 21 184 33.8 40.2 0.00 0.00 0.00 25 1017.0
20260503204056 22 207 25.7 37.0 0.00 0.00 0.00 24 1017.2
20260503202012 21 211 16.1 37.0 0.00 0.00 0.00 25 1017.3
20260503201555 21 211 17.7 37.0 0.00 0.00 0.00 23 1017.0
20260503201055 22 176 29.0 35.4 0.00 0.00 0.00 21 1017.4
20260503200512 21 184 9.7 46.7 0.00 0.00 0.00 26 1017.1
20260503200013 21 176 19.3 38.6 0.00 0.00 0.00 24 1017.1
20260503195555 21 184 20.9 27.4 0.00 0.00 0.00 28 1017.4
20260503195013 22 172 22.5 35.4 0.00 0.00 0.00 26 1017.4
20260503194555 21 139 14.5 29.0 0.00 0.00 0.00 26 1017.7
20260503194055 22 196 16.1 29.0 0.00 0.00 0.00 23 1017.5
20260503193555 21 142 9.7 48.3 0.00 0.00 0.00 25 1017.6
20260503193013 22 152 12.9 27.4 0.00 0.00 0.00 27 1017.7
20260503192555 21 201 16.1 38.6 0.00 0.00 0.00 28 1017.6
20260503191013 21 143 8.0 45.1 0.00 0.00 0.00 26 1017.9
20260503190555 21 216 16.1 41.8 0.00 0.00 0.00 27 1017.9
20260503190055 21 129 27.4 33.8 0.00 0.00 0.00 28 1018.0
20260503185555 21 130 14.5 38.6 0.00 0.00 0.00 28 1017.8
20260503185055 21 129 20.9 41.8 0.00 0.00 0.00 28 1018.0
20260503184556 21 193 20.9 37.0 0.00 0.00 0.00 31 1017.9
20260503182513 21 153 12.9 20.9 0.00 0.00 0.00 31 1017.9
20260503182013 20 174 14.5 19.3 0.00 0.00 0.00 33 1018.0
20260503181555 20 116 14.5 19.3 0.00 0.00 0.00 34 1018.1
20260503175555 21 101 16.1 19.3 0.00 0.00 0.00 31 1018.0
20260503175013 21 123 19.3 29.0 0.00 0.00 0.00 32 1018.0
20260503174556 21 72 8.0 30.6 0.00 0.00 0.00 32 1018.0
20260503174056 21 92 11.3 29.0 0.00 0.00 0.00 34 1018.0
20260503173556 21 91 8.0 14.5 0.00 0.00 0.00 32 1018.1
20260503173012 21 139 6.4 27.4 0.00 0.00 0.00 33 1018.2
20260503172555 21 95 8.0 22.5 0.00 0.00 0.00 33 1018.1
20260503172056 20 127 16.1 35.4 0.00 0.00 0.00 35 1018.1
20260503171555 21 63 9.7 24.1 0.00 0.00 0.00 34 1018.0
20260503171056 20 135 9.7 29.0 0.00 0.00 0.00 34 1018.1
20260503170555 20 131 17.7 19.3 0.00 0.00 0.00 35 1018.4
20260503150512 18 127 8.0 9.7 0.00 0.00 0.00 39 1018.5
20260503131013 13 124 6.4 14.5 0.00 0.00 0.00 38 1018.1
20260503130555 13 112 8.0 14.5 0.00 0.00 0.00 38 1018.0
20260503081555 15 197 9.7 11.3 0.00 0.00 0.00 31 1018.9
20260503081014 15 205 8.0 9.7 0.00 0.00 0.00 32 1019.2
20260503080555 15 203 6.4 14.5 0.00 0.00 0.00 32 1018.7